Dewpoint
77 77 76 75 75 74 74 74 73 73 73 71 70 70 68 69 69 68 68 68 68 68 68 69 69 69 68 68 68 68 67 68 68 67 67 66 66 65 65 65 65 65
77 77 76 76 76 75 75 74 74 74 74 73 71 70 70 70 69 68 68 67 68 68 69 68 69 69 69 67 68 67 67 67 68 67 67 67 66 66 65 65 64 64
77 77 77 76 75 75 74 75 75 74 73 73 72 71 70 70 69 69 68 68 68 68 68 69 69 69 68 68 68 67 66 67 67 67 67 66 65 65 65 62 63 63
78 77 76 76 75 75 76 75 75 75 74 72 71 70 70 69 68 68 68 68 68 68 68 68 68 68 68 68 68 66 67 67 67 67 66 66 66 65 64 64 63 63
77 77 77 76 75 76 76 75 74 74 73 72 72 71 70 69 68 67 67 68 68 67 68 68 68 67 68 68 67 67 67 66 66 67 66 65 66 65 64 64 64 62
78 77 77 76 76 76 75 74 74 73 73 71 71 70 69 69 67 66 67 67 66 66 66 66 67 67 67 67 67 67 66 65 65 66 65 65 64 63 63 63 63 63
77 77 77 76 76 74 74 74 74 74 72 71 71 69 68 67 67 67 68 68 67 67 66 67 67 66 67 67 67 67 67 66 66 66 65 64 64 64 63 63 64 64
77 77 76 75 74 74 74 73 74 73 73 72 70 70 68 66 67 67 68 68 66 67 67 67 67 68 66 66 67 66 66 65 65 65 65 64 64 64 64 63 64 65
77 76 75 75 73 73 71 72 72 73 72 71 69 68 69 67 67 67 69 68 67 68 68 66 67 67 66 65 65 65 65 64 64 64 64 64 63 63 63 64 64 64
76 75 74 72 71 71 71 71 71 72 71 70 68 66 67 67 68 69 70 70 67 66 66 66 66 66 66 66 66 65 65 65 65 65 64 64 63 64 63 63 63 63
75 74 73 72 71 70 71 70 69 70 70 69 68 66 67 68 69 70 70 69 65 66 66 66 67 66 67 65 65 66 65 65 65 65 65 65 65 65 64 64 63 62
75 74 72 72 72 71 71 70 70 71 69 68 67 65 67 67 69 67 67 67 66 66 66 66 67 67 67 66 64 64 65 65 64 65 65 65 65 64 64 64 64 63
75 73 72 72 72 72 72 70 69 68 67 67 65 64 64 63 63 66 67 66 66 66 67 67 67 67 67 67 67 66 66 67 66 66 66 66 65 63 62 62 62 63
74 73 73 72 72 73 72 71 70 69 69 67 65 64 60 61 63 64 66 67 67 66 66 67 67 67 69 69 67 67 67 67 67 66 65 65 64 64 62 61 60 60
75 74 73 73 72 72 72 71 70 70 69 67 67 65 63 63 63 65 67 67 67 66 66 66 67 67 67 67 67 67 67 65 66 64 65 64 63 63 63 63 62 61
74 74 73 72 72 72 72 72 70 70 69 70 69 66 64 63 64 66 65 65 66 66 66 67 67 67 66 64 65 66 65 65 63 65 65 64 63 63 63 62 62 62
74 74 73 72 72 72 73 72 71 70 70 69 69 68 66 67 66 65 62 63 62 64 67 67 67 67 63 61 61 63 65 65 64 65 65 64 64 64 64 63 62 62
74 74 73 72 72 71 72 72 71 71 70 70 68 66 66 65 65 65 64 61 61 63 66 66 67 64 61 61 61 61 63 66 64 64 64 64 64 64 64 65 65 64
73 73 72 72 72 71 72 71 71 70 69 69 67 67 67 66 65 65 65 65 66 67 66 66 66 62 60 60 60 60 61 63 64 63 63 63 65 66 66 67 67 67
73 72 72 72 71 71 71 70 70 69 69 68 67 68 67 65 64 65 66 66 67 67 66 65 64 62 59 59 59 59 60 62 64 63 63 63 65 66 66 67 67 68
72 72 72 71 71 71 71 70 69 70 69 67 66 65 65 65 64 66 66 67 66 66 66 64 62 59 58 58 57 57 58 61 65 64 64 64 65 66 67 68 68 67
72 72 72 71 71 70 70 70 70 69 69 68 66 65 65 68 67 63 65 66 66 65 63 63 58 58 57 57 56 56 58 64 65 65 65 65 65 66 67 68 67 66
72 71 71 71 71 70 69 69 70 69 68 67 66 65 63 62 60 61 66 64 61 62 64 63 59 60 56 56 56 56 58 64 65 64 64 65 65 66 67 66 66 66
72 71 71 70 70 69 69 69 69 68 66 65 63 62 61 62 62 63 64 61 58 60 61 62 60 59 55 55 55 55 60 64 65 65 65 65 66 67 67 66 65 64
71 71 71 70 70 69 68 69 69 68 64 62 60 59 60 61 60 63 62 60 60 59 64 62 59 59 55 55 54 55 60 65 65 66 66 66 66 66 65 64 65 66
71 71 71 70 70 70 70 69 68 66 63 61 60 59 57 58 60 61 61 61 60 61 60 62 62 62 68 54 53 54 57 65 66 66 65 66 65 63 62 65 66 66